Weather History for New Castle, PA

Change the Weather History Date:

Monday, July 1, 2013

  Actual Average Record
Temperature  
Mean Temperature 68 °F -  
Max Temperature 75 °F 81 °F 98 °F (1934)
Min Temperature 62 °F 58 °F 42 °F (1988)
Cooling Degree Days 4    
Growing Degree Days 18 (Base 50)    
Moisture  
Dew Point 64 °F    
Average Humidity 90    
Maximum Humidity 100    
Minimum Humidity 66    
Precipitation  
Precipitation 0.06 in - - ()
Sea Level Pressure  
Sea Level Pressure 29.94 in    
Wind  
Wind Speed 2 mph (ENE)    
Max Wind Speed 14 mph    
Max Gust Speed -    
Visibility 7 miles    
Events Rain    
Averages and records for this station are not official NWS values.
T = Trace of Precipitation, MM = Missing Value Source: NWS Daily Summary

Daily Weather History Graph

Daily Weather History Graph

Search for Another Location

Airport:

Trip Planner

Search our weather history database for the weather conditions in past years. The results will help you decide how hot, cold, wet, or windy it might be!

Date:

Astronomy

Jul. 01, 2013 Rise Set
Actual Time 5:53 AM EDT 8:57 PM EDT
Civil Twilight 5:19 AM EDT 9:31 PM EDT
Nautical Twilight 4:37 AM EDT 10:13 PM EDT
Astronomical Twilight 3:46 AM EDT 11:03 PM EDT
Moon 1:24 AM EDT (7/1) 3:09 PM EDT (7/1)
Length of Visible Light 16h 11m
Length of Day
15h 04m
Waning Crescent, 35% of the Moon is Illuminated
Jul 1
Waning Crescent
Jul 8
New
Jul 15
First Quarter
Jul 22
Full
Jul 29
Last Quarter

Hourly Weather History & Observations

Time (EDT) Temp. Dew Point Humidity Pressure Visibility Wind Dir Wind Speed Gust Speed Precip Events Conditions
12:17 AM 64.4 °F 64.4 °F 100% 29.90 in 1.8 mi Calm Calm - N/A   Clear
12:20 AM 64.4 °F 64.4 °F 100% 29.90 in 1.0 mi Calm Calm - N/A   Clear
12:28 AM 64.4 °F 64.4 °F 100% 29.89 in 1.5 mi Calm Calm - N/A   Clear
12:36 AM 62.6 °F 62.6 °F 100% 29.89 in 3.0 mi Calm Calm - N/A   Clear
12:56 AM 63.9 °F 63.9 °F 100% 29.91 in 6.0 mi Calm Calm - N/A   Clear
1:56 AM 63.9 °F 63.9 °F 100% 29.91 in 8.0 mi Calm Calm - N/A   Clear
2:56 AM 63.9 °F 63.9 °F 100% 29.90 in 9.0 mi Calm Calm - N/A   Clear
3:56 AM 63.9 °F 63.9 °F 100% 29.89 in 10.0 mi Calm Calm - N/A   Clear
4:56 AM 63.0 °F 63.0 °F 100% 29.90 in 6.0 mi Calm Calm - N/A   Clear
5:47 AM 62.6 °F 62.6 °F 100% 29.90 in 2.5 mi Calm Calm - N/A   Clear
5:56 AM 63.0 °F 63.0 °F 100% 29.93 in 2.5 mi Calm Calm - N/A   Clear
6:06 AM 62.6 °F 62.6 °F 100% 29.90 in 4.0 mi Calm Calm - N/A   Clear
6:56 AM 63.9 °F 63.9 °F 100% 29.94 in 4.0 mi Calm Calm - N/A   Partly Cloudy
7:56 AM 64.4 °F 64.4 °F 100% 29.92 in 4.0 mi Calm Calm - N/A   Mostly Cloudy
8:14 AM 64.4 °F 64.4 °F 100% 29.92 in 4.0 mi Calm Calm - N/A   Mostly Cloudy
8:24 AM 64.4 °F 64.4 °F 100% 29.92 in 1.8 mi Calm Calm - 0.01 in Rain Rain
8:33 AM 64.4 °F 64.4 °F 100% 29.92 in 1.2 mi Calm Calm - 0.02 in Rain Light Rain
8:41 AM 64.4 °F 64.4 °F 100% 29.92 in 1.8 mi Calm Calm - 0.03 in Rain Light Rain
8:56 AM 64.9 °F 64.9 °F 100% 29.96 in 3.0 mi Calm Calm - 0.04 in Rain Light Rain
9:00 AM 64.4 °F 64.4 °F 100% 29.93 in 3.0 mi Calm Calm - 0.00 in Rain Light Rain
9:34 AM 66.2 °F 66.2 °F 100% 29.93 in 4.0 mi Calm Calm - 0.02 in Rain Light Rain
9:56 AM 65.8 °F 65.8 °F 100% 29.96 in 2.0 mi Calm Calm - 0.02 in Rain Light Rain
10:10 AM 66.2 °F 66.2 °F 100% 29.93 in 4.0 mi Calm Calm - 0.00 in Rain Light Rain
10:44 AM 66.2 °F 66.2 °F 100% 29.93 in 4.0 mi Calm Calm - 0.00 in Rain Light Rain
10:56 AM 66.2 °F 66.2 °F 100% 29.93 in 5.0 mi NNE 5.8 mph - N/A Rain Light Rain
11:56 AM 68.9 °F 66.9 °F 93% 29.98 in 10.0 mi ENE 5.8 mph - 0.00 in   Mostly Cloudy
12:38 PM 71.6 °F 66.2 °F 83% 29.95 in 10.0 mi ENE 6.9 mph - N/A   Mostly Cloudy
12:44 PM 71.6 °F 66.2 °F 83% 29.95 in 10.0 mi East 6.9 mph - N/A   Overcast
12:56 PM 72.9 °F 65.8 °F 79% 29.98 in 10.0 mi ENE 10.4 mph - N/A   Mostly Cloudy
1:04 PM 71.6 °F 66.2 °F 83% 29.95 in 10.0 mi ENE 8.1 mph - N/A   Mostly Cloudy
1:56 PM 73.4 °F 66.2 °F 78% 29.94 in 10.0 mi ENE 5.8 mph - N/A   Mostly Cloudy
2:00 PM 75.2 °F 66.2 °F 73% 29.95 in 10.0 mi Variable 6.9 mph - N/A   Mostly Cloudy
2:07 PM 75.2 °F 64.4 °F 69% 29.95 in 10.0 mi East 9.2 mph - N/A   Mostly Cloudy
2:30 PM 75.2 °F 64.4 °F 69% 29.94 in 10.0 mi ENE 13.8 mph - N/A   Scattered Clouds
2:56 PM 73.9 °F 63.0 °F 68% 29.98 in 10.0 mi ENE 10.4 mph - N/A   Scattered Clouds
3:56 PM 73.9 °F 64.9 °F 73% 29.98 in 10.0 mi ENE 6.9 mph - N/A   Partly Cloudy
4:56 PM 75.2 °F 64.4 °F 69% 29.94 in 10.0 mi East 5.8 mph - N/A   Mostly Cloudy
5:56 PM 74.8 °F 63.0 °F 66% 29.98 in 10.0 mi East 8.1 mph - N/A   Scattered Clouds
6:56 PM 72.9 °F 61.9 °F 68% 29.98 in 10.0 mi NE 9.2 mph - N/A   Scattered Clouds
7:56 PM 72.0 °F 61.9 °F 70% 30.00 in 10.0 mi ENE 8.1 mph - N/A   Partly Cloudy
8:10 PM 71.6 °F 62.6 °F 73% 29.97 in 10.0 mi NE 8.1 mph - N/A   Mostly Cloudy
8:20 PM 71.6 °F 62.6 °F 73% 29.97 in 10.0 mi ENE 6.9 mph - N/A   Mostly Cloudy
8:56 PM 68.9 °F 61.9 °F 78% 30.01 in 10.0 mi Calm Calm - N/A   Clear
9:56 PM 66.9 °F 61.9 °F 84% 30.02 in 10.0 mi Calm Calm - N/A   Clear
10:56 PM 65.8 °F 64.9 °F 97% 30.02 in 10.0 mi Calm Calm - N/A   Partly Cloudy
11:56 PM 66.9 °F 64.9 °F 93% 30.04 in 10.0 mi Calm Calm - N/A   Clear